Location: Woodhurst
(52.3667°N, 0.0667°W)
Time: 04:34:48
(UTC+00:00)

CENTAUR R/B - Pass Details

Date: 19 May 2025
Orbit: 645 x 1537 km, 63.4° (Epoch: 13 June)

Event Time Altitude Azimuth Distance (km) Brightness Sun altitude
Rises 21:20:23 0° 300° (WNW) 3,832 7.0 -10.1°
Reaches altitude 10° 21:23:01 10° 308° (NW) 3,004 6.5 -10.3°
Maximum altitude 21:29:58 42° 18° (NNE) 1,773 4.2 -10.9°
Drops below altitude 10° 21:38:13 10° 87° (E) 3,572 5.1 -11.6°
Sets 21:41:37 0° 95° (E) 4,623 5.7 -11.9°
